Onweer radar Meer informatie blitzortung!


Regen radar Meer informatie rain snow radar


Bezoek onze andere website:

Template documentation
and downloads

And another site



15 daagse weersverwachting Ennis (IE)

  • Overzicht
  • Per uur
  • 15 dagen
  • Extra
  • Vergelijk
  • Kaarten
  • Dagkaart
  • Meer »
  • Info
  • Statistieken
  • Directe link
    Temp 6h Neerslag Wind  
 05:12     22:03    Daglengte: 16:51 Vandaag
19:00
14°
4.1 mm
7
 05:12     22:03    Daglengte: 16:51 Morgen
01:00
11°
 
5
07:00
12°
 
6
13:00
16°
 
7
19:00
15°
 
6
 05:12     22:04    Daglengte: 16:52 Dinsdag 18 Jun
01:00
10°
 
3
07:00
11°
 
2
13:00
16°
 
3
19:00
15°
 
4
 05:12     22:04    Daglengte: 16:52 Woensdag 19 Jun
01:00
10°
 
2
07:00
10°
 
2
13:00
15°
8.0 mm
5
Locatie info
Region: Clare
Latitude: 52.8469°N
Longitude: -8.9882°E
5 masl
Postcode: -1
Temp/Neerslag /Baro Onweer/Dauwpunt
    Temp Baro 1h Neerslag Dauwpunt Wind UV Bewolking  
 05:12     22:03    Daglengte: 16:51 Vandaag
18:00
14°
1006.2 hPa 1.8 mm
55%
11.1°
7
Windvlaag: 3.6 m/s
42%
19:00
14°
1006.6 hPa 2.3 mm
77%
10.0°
7
Windvlaag: 3.8 m/s
25%
20:00
13°
1007.0 hPa
76%
9.4°
6
Windvlaag: 3.3 m/s
11%
21:00
13°
1007.4 hPa
38%
9.1°
5
Windvlaag: 3.4 m/s
19%
22:00
12°
1007.7 hPa
33%
8.9°
5
Windvlaag: 3.4 m/s
39%
23:00
12°
1008.1 hPa
29%
8.8°
4
Windvlaag: 3.5 m/s
28%
 05:12     22:03    Daglengte: 16:51 Morgen
00:00
11°
1008.3 hPa
16%
8.8°
5
Windvlaag: 4.1 m/s
31%
01:00
11°
1008.5 hPa
17%
8.8°
5
Windvlaag: 4.1 m/s
39%
02:00
11°
1008.5 hPa
21%
9.0°
5
Windvlaag: 4.4 m/s
58%
03:00
11°
1008.5 hPa
21%
9.0°
5
Windvlaag: 4.5 m/s
45%
04:00
11°
1008.4 hPa
18%
8.9°
5
Windvlaag: 4.7 m/s
50%
05:00
11°
1008.3 hPa
21%
9.0°
5
Windvlaag: 4.9 m/s
49%
06:00
11°
1008.5 hPa
56%
9.1°
5
Windvlaag: 4.8 m/s
42%
07:00
12°
1008.7 hPa
24%
9.2°
6
Windvlaag: 4.7 m/s
42%
08:00
13°
1009.1 hPa
77%
9.6°
6
Windvlaag: 4.6 m/s
28%
09:00
13°
1009.3 hPa
81%
10.0°
6
Windvlaag: 4.6 m/s
27%
10:00
14°
1009.9 hPa
80%
10.5°
6
Windvlaag: 4.4 m/s
34%
11:00
15°
1010.3 hPa
70%
10.5°
6
Windvlaag: 4.1 m/s
32%
12:00
16°
1010.5 hPa
69%
10.6°
6
Windvlaag: 4.1 m/s
26%
13:00
16°
1010.7 hPa
20%
10.4°
7
Windvlaag: 4 m/s
21%
14:00
16°
1011.0 hPa
20%
10.3°
6
Windvlaag: 3.9 m/s
26%
15:00
16°
1011.1 hPa
14%
9.9°
7
Windvlaag: 3.4 m/s
18%
16:00
16°
1011.2 hPa
14%
9.3°
6
Windvlaag: 3.2 m/s
25%
17:00
16°
1011.4 hPa
14%
9.2°
6
Windvlaag: 3.1 m/s
23%
18:00
15°
1011.6 hPa
14%
9.4°
6
Windvlaag: 2.9 m/s
20%
19:00
15°
1011.7 hPa
14%
9.3°
6
Windvlaag: 2.9 m/s
17%
20:00
14°
1011.8 hPa
14%
9.2°
5
Windvlaag: 2.9 m/s
3%
21:00
13°
1012.2 hPa
14%
9.6°
4
Windvlaag: 2.5 m/s
18%
22:00
12°
1012.5 hPa
14%
9.4°
3
Windvlaag: 2.4 m/s
7%
23:00
11°
1012.8 hPa
14%
9.5°
3
Windvlaag: 2.2 m/s
14%
 05:12     22:04    Daglengte: 16:52 Dinsdag 18 Jun
00:00
11°
1012.9 hPa
14%
9.4°
3
Windvlaag: 2.2 m/s
12%
01:00
10°
1012.8 hPa
14%
9.3°
3
Windvlaag: 2.3 m/s
13%
02:00
10°
1012.8 hPa
14%
9.1°
2
Windvlaag: 2.4 m/s
23%
03:00
10°
Voelt als: 8.9°
1012.6 hPa
15%
9.1°
2
Windvlaag: 2.4 m/s
25%
04:00
10°
1012.4 hPa
54%
9.3°
2
Windvlaag: 2.2 m/s
59%
05:00
10°
Voelt als: 8.9°
1012.3 hPa
14%
9.2°
2
Windvlaag: 1.9 m/s
37%
06:00
10°
Voelt als: 8.9°
1012.5 hPa
14%
9.2°
2
Windvlaag: 1.6 m/s
30%
07:00
11°
1012.7 hPa
14%
9.4°
2
Windvlaag: 1.4 m/s
20%
08:00
12°
1012.8 hPa
14%
9.2°
3
Windvlaag: 2 m/s
19%
09:00
13°
1012.9 hPa
14%
8.8°
3
Windvlaag: 2 m/s
34%
10:00
14°
1012.9 hPa
14%
8.8°
3
Windvlaag: 2.1 m/s
39%
11:00
15°
1012.8 hPa
14%
8.7°
3
Windvlaag: 2.3 m/s
47%
12:00
16°
1012.6 hPa
14%
8.4°
3
Windvlaag: 2.5 m/s
49%
13:00
16°
1012.4 hPa
15%
8.2°
3
Windvlaag: 2.4 m/s
40%
14:00
17°
1012.2 hPa
14%
8.4°
3
Windvlaag: 1.8 m/s
49%
15:00
17°
1011.9 hPa
14%
8.6°
4
Windvlaag: 1 m/s
50%
16:00
17°
1011.6 hPa
21%
9.0°
4
Windvlaag: 0.5 m/s
35%
17:00
16°
1011.3 hPa
21%
9.1°
4
Windvlaag: 0 m/s
16%
18:00
16°
1011.2 hPa
21%
9.4°
4
Windvlaag: -0.4 m/s
15%
19:00
15°
1011.2 hPa
21%
9.4°
4
Windvlaag: -0.5 m/s
12%
20:00
14°
1011.3 hPa
21%
9.5°
4
Windvlaag: -0.3 m/s
30%
21:00
13°
1011.2 hPa
21%
9.9°
3
Windvlaag: -0.1 m/s
27%
22:00
12°
1011.4 hPa
21%
10.0°
2
Windvlaag: 0 m/s
32%
23:00
11°
1011.5 hPa
21%
10.0°
2
Windvlaag: 0.3 m/s
60%
 05:12     22:04    Daglengte: 16:52 Woensdag 19 Jun
00:00
11°
1011.4 hPa
21%
10.0°
2
Windvlaag: 0.3 m/s
51%
01:00
10°
1011.1 hPa
21%
9.7°
2
Windvlaag: 0.1 m/s
30%
02:00
10°
1010.8 hPa
21%
9.6°
2
Windvlaag: 0.2 m/s
24%
03:00
10°
Voelt als: 8.9°
1010.4 hPa
21%
9.3°
2
Windvlaag: 0.2 m/s
31%
04:00
Voelt als: 8.7°
1009.9 hPa
21%
9.2°
2
Windvlaag: 0.9 m/s
31%
05:00
Voelt als: 8.6°
1009.6 hPa
21%
9.1°
2
Windvlaag: 1 m/s
77%
06:00
Voelt als: 8.7°
1009.7 hPa
21%
9.3°
2
Windvlaag: 0.9 m/s
82%
07:00
10°
1009.8 hPa
21%
9.8°
2
Windvlaag: 1.2 m/s
69%
08:00
11°
1009.7 hPa
23%
10.3°
2
Windvlaag: 3.5 m/s
56%
09:00
12°
1009.6 hPa 3.8 mm
39%
10.7°
3
Windvlaag: 3.9 m/s
72%
10:00
13°
1009.5 hPa 4.2 mm
95%
10.5°
3
Windvlaag: 4 m/s
62%
11:00
14°
1009.4 hPa
92%
10.7°
4
Windvlaag: 1.4 m/s
62%
12:00
14°
1009.3 hPa
85%
10.9°
4
Windvlaag: 1.2 m/s
62%
13:00
15°
1009.3 hPa
89%
10.9°
5
Windvlaag: 0.7 m/s
64%
14:00
15°
1008.8 hPa
90%
11.0°
5
Windvlaag: 7.4 m/s
51%
15:00
15°
1008.8 hPa
83%
10.9°
5
Windvlaag: 7.8 m/s
40%
16:00
15°
1008.6 hPa
34%
10.7°
5
Windvlaag: 8.8 m/s
47%
17:00
14°
1008.5 hPa
29%
10.3°
6
Windvlaag: 9.2 m/s
51%
Temp/Neerslag /Baro Onweer/Dauwpunt
    Temp Baro Neerslag Dauwpunt Wind Bewolking  
 05:12     22:03    Daglengte: 16:51 Vandaag
19:00
14°
1006.6 hPa 4.1 mm 10.0°
7
25%
22:00
12°
1007.7 hPa   8.9°
5
39%
 05:12     22:03    Daglengte: 16:51 Morgen
01:00
11°
1008.5 hPa   8.8°
5
39%
04:00
11°
1008.4 hPa   8.9°
5
50%
07:00
12°
1008.7 hPa   9.2°
6
42%
10:00
14°
1009.9 hPa   10.5°
6
34%
13:00
16°
1010.7 hPa   10.4°
7
21%
16:00
16°
1011.2 hPa   9.3°
6
25%
19:00
15°
1011.7 hPa   9.3°
6
17%
22:00
12°
1012.5 hPa   9.4°
3
7%
 05:12     22:04    Daglengte: 16:52 Dinsdag 18 Jun
01:00
10°
1012.8 hPa   9.3°
3
13%
04:00
10°
1012.4 hPa   9.3°
2
59%
07:00
11°
1012.7 hPa   9.4°
2
20%
10:00
14°
1012.9 hPa   8.8°
3
39%
13:00
16°
1012.4 hPa   8.2°
3
40%
16:00
17°
1011.6 hPa   9.0°
4
35%
19:00
15°
1011.2 hPa   9.4°
4
12%
22:00
12°
1011.4 hPa   10.0°
2
32%
 05:12     22:04    Daglengte: 16:52 Woensdag 19 Jun
01:00
10°
1011.1 hPa   9.7°
2
30%
04:00
Voelt als: 8.7°
1009.9 hPa   9.2°
2
31%
07:00
10°
1009.8 hPa   9.8°
2
69%
10:00
13°
1009.5 hPa 8.0 mm 10.5°
3
62%
13:00
15°
1009.3 hPa   10.9°
5
64%
16:00
15°
1008.6 hPa   10.7°
5
47%
19:00
13°
1008.5 hPa   9.5°
6
54%
22:00
11°
1009.2 hPa 10.3 mm 8.5°
4
56%
 05:12     22:04    Daglengte: 16:52 Donderdag 20 Jun
01:00
10°
1009.3 hPa 10.5 mm 8.0°
4
63%
04:00
10°
1009.5 hPa 10.5 mm 8.4°
4
74%
07:00
10°
1009.8 hPa 10.6 mm 9.0°
3
85%
10:00
12°
1010.9 hPa 11.7 mm 9.3°
4
55%
13:00
14°
1011.9 hPa 13.2 mm 9.4°
5
25%
16:00
14°
1012.7 hPa 13.6 mm 8.1°
5
20%
19:00
13°
1013.6 hPa 13.7 mm 6.7°
5
14%
22:00
11°
1015.2 hPa 13.7 mm 7.1°
3
25%
 05:12     22:04    Daglengte: 16:52 Vrijdag 21 Jun
01:00
Voelt als: 8.0°
1016.7 hPa 13.7 mm 7.0°
2
36%
04:00
10°
Voelt als: 8.7°
1017.4 hPa 13.7 mm 7.4°
2
40%
07:00
10°
1018.2 hPa 13.7 mm 8.0°
2
45%
10:00
13°
1019.4 hPa 13.8 mm 7.5°
3
58%
13:00
15°
1020.5 hPa 13.9 mm 6.5°
3
71%
16:00
15°
1020.9 hPa 13.9 mm 6.3°
3
56%
19:00
14°
1021.4 hPa 13.9 mm 6.1°
2
40%
22:00
11°
1022.1 hPa 13.9 mm 6.9°
2
42%
 05:13     22:05    Daglengte: 16:52 Zaterdag 22 Jun
01:00
Voelt als: 7.5°
1022.7 hPa 13.9 mm 6.9°
1
44%
04:00
Voelt als: 8.6°
1022.4 hPa 13.9 mm 7.6°
2
57%
07:00
10°
1022.2 hPa 14.0 mm 8.2°
2
70%
10:00
14°
1022.2 hPa 14.1 mm 8.1°
3
57%
13:00
17°
1022.2 hPa 15.1 mm 6.7°
3
44%
16:00
17°
1021.8 hPa 17.1 mm 7.6°
3
67%
19:00
17°
1021.3 hPa 17.5 mm 8.4°
2
90%
22:00
14°
1021.9 hPa 17.6 mm 8.9°
2
59%
 05:13     22:05    Daglengte: 16:52 Zondag 23 Jun
01:00
11°
1022.5 hPa 17.6 mm 8.7°
2
29%
04:00
10°
1022.4 hPa 17.7 mm 8.7°
2
56%
07:00
10°
Voelt als: 9.6°
1022.4 hPa 17.7 mm 8.8°
1
84%
10:00
14°
1021.9 hPa 18.0 mm 9.4°
2
82%
13:00
19°
1021.5 hPa 18.0 mm 8.5°
3
81%
16:00
19°
1021.3 hPa   9.5°
3
68%
19:00
18°
1021.1 hPa 38.3 mm 10.4°
3
56%
 05:13     22:05    Daglengte: 16:52 Maandag 24 Jun
01:00
13°
1022.6 hPa 42.0 mm 10.9°
2
31%
07:00
12°
1023.5 hPa 48.2 mm 10.3°
2
1%
13:00
20°
1024.0 hPa 54.6 mm 9.9°
4
91%
19:00
19°
1024.6 hPa 60.2 mm 10.8°
3
30%
 05:14     22:05    Daglengte: 16:51 Dinsdag 25 Jun
01:00
13°
1027.6 hPa 64.2 mm 9.8°
2
52%
07:00
12°
1028.6 hPa 71.4 mm 10.4°
2
34%
13:00
20°
1029.8 hPa 76.0 mm 9.7°
2
20%
19:00
19°
1029.4 hPa 76.9 mm 12.1°
4
3%
 05:14     22:05    Daglengte: 16:51 Woensdag 26 Jun
01:00
13°
1030.3 hPa 77.1 mm 9.9°
2
9%
07:00
11°
1023.4 hPa 77.2 mm 8.6°
4
0%
13:00
15°
1026.3 hPa 0.1 mm 9.5°
3
43%
19:00
15°
1025.0 hPa 0.2 mm 10.5°
4
52%
 05:15     22:05    Daglengte: 16:50 Donderdag 27 Jun
01:00
11°
1024.3 hPa 0.2 mm 9.2°
2
53%
07:00
11°
1021.9 hPa 0.7 mm 9.6°
2
61%
13:00
15°
1020.3 hPa 0.5 mm 10.6°
3
64%
19:00
15°
1018.6 hPa 1.0 mm 11.4°
4
64%
 05:15     22:04    Daglengte: 16:49 Vrijdag 28 Jun
01:00
11°
1018.5 hPa 0.6 mm 9.7°
2
53%
07:00
12°
1017.2 hPa 0.5 mm 10.2°
2
52%
13:00
16°
1017.0 hPa 0.4 mm 11.0°
3
61%
19:00
16°
1016.2 hPa 0.6 mm 11.5°
3
64%
 05:16     22:04    Daglengte: 16:48 Zaterdag 29 Jun
01:00
11°
1016.4 hPa 0.3 mm 10.2°
2
49%
07:00
11°
1015.3 hPa 0.4 mm 10.2°
2
55%
13:00
16°
1014.7 hPa 0.7 mm 11.1°
3
64%
19:00
15°
1013.3 hPa 0.9 mm 11.1°
3
57%
 05:17     22:04    Daglengte: 16:47 Zondag 30 Jun
01:00
12°
1012.7 hPa 0.7 mm 10.3°
2
59%
07:00
12°
1011.9 hPa 0.6 mm 10.3°
2
62%
13:00
15°
1012.4 hPa 0.8 mm 10.7°
3
64%
19:00
15°
1012.6 hPa 0.7 mm 10.7°
4
56%
 05:17     22:04    Daglengte: 16:47 Maandag 01 Jul
01:00
11°
1013.7 hPa 0.2 mm 9.3°
2
35%
07:00
11°
1013.3 hPa 0.7 mm 9.7°
2
37%
13:00
15°
1014.0 hPa 0.6 mm 10.5°
4
52%
  CAPE Lifted Index Hail Supercell Tornado SRH 3km CL BTM PRES CL TOP PRES Swiss DWD icon SMHI TS
 05:12     22:03    Daglengte: 16:51 Vandaag
18:00 474 J/kg -0.9 K 0 % 0 % 0 % 0 m²/s² 0 0 1.32 3
19:00 227 J/kg 0.9 K 0 % 0 % 0 % 0 m²/s² 0 0 1.92 3
20:00 194 J/kg 1.5 K 0 % 0 % 0 % 0 m²/s² 0 0 2.82 2
21:00 170 J/kg 1.9 K 0 % 0 % 0 % 0 m²/s² 0 0 4.54 0
22:00 140 J/kg 2.2 K 0 % 0 % 0 % 0 m²/s² 0 0 5.23 3
23:00 95 J/kg 2.5 K 0 % 0 % 0 % 0 m²/s² 0 0 5.77 3
 05:12     22:03    Daglengte: 16:51 Morgen
00:00 56 J/kg 2.4 K 0 % 0 % 0 % 0 m²/s² 0 0 5.85 2
01:00 22 J/kg 2.3 K 0 % 0 % 0 % 0 m²/s² 0 0 5.09 2
02:00 5 J/kg 2.7 K 0 % 0 % 0 % 0 m²/s² 0 0 4.98 3
03:00 0 J/kg 2.9 K 0 % 0 % 0 % 0 m²/s² 0 0 5.54 2
04:00 0 J/kg 2.7 K 0 % 0 % 0 % 0 m²/s² 0 0 5.58 2
05:00 6 J/kg 2.4 K 0 % 0 % 0 % 0 m²/s² 0 0 5.34 2
06:00 45 J/kg 2.4 K 0 % 0 % 0 % 0 m²/s² 0 0 5.52 2
07:00 76 J/kg 2.2 K 0 % 0 % 0 % 0 m²/s² 0 0 5.38 2
08:00 126 J/kg 1.4 K 0 % 0 % 0 % 0 m²/s² 0 0 4.19 2
09:00 149 J/kg 1.3 K 0 % 0 % 0 % 0 m²/s² 0 0 3.79 1
10:00 160 J/kg 1.5 K 0 % 0 % 0 % 0 m²/s² 0 0 3.78 2
11:00 152 J/kg 1.7 K 0 % 0 % 0 % 0 m²/s² 0 0 3.83 2
12:00 161 J/kg 1.9 K 0 % 0 % 0 % 0 m²/s² 0 0 3.97 2
13:00 182 J/kg 1.7 K 0 % 0 % 0 % 0 m²/s² 0 0 3.65 2
14:00 191 J/kg 1.5 K 0 % 0 % 0 % 0 m²/s² 0 0 3.57 0
15:00 179 J/kg 1.3 K 0 % 0 % 0 % 0 m²/s² 0 0 3.85 1
16:00 111 J/kg 1.6 K 0 % 0 % 0 % 0 m²/s² 0 0 4.78 3
17:00 55 J/kg 2.2 K 0 % 0 % 0 % 0 m²/s² 0 0 5.83 3
18:00 38 J/kg 2.8 K 0 % 0 % 0 % 0 m²/s² 0 0 6.73 3
19:00 32 J/kg 3.5 K 0 % 0 % 0 % 0 m²/s² 0 0 7.55 3
20:00 14 J/kg 4.1 K 0 % 0 % 0 % 0 m²/s² 0 0 8.48 2
21:00 11 J/kg 4.4 K 0 % 0 % 0 % 0 m²/s² 0 0 8.78 3
22:00 3 J/kg 4.7 K 0 % 0 % 0 % 0 m²/s² 0 0 9.44 0
23:00 3 J/kg 5.2 K 0 % 0 % 0 % 0 m²/s² 0 0 10.21 0
 05:12     22:04    Daglengte: 16:52 Dinsdag 18 Jun
00:00 2 J/kg 5.3 K 0 % 0 % 0 % 0 m²/s² 0 0 10.46 0
01:00 1 J/kg 5.4 K 0 % 0 % 0 % 0 m²/s² 0 0 10.83 1
02:00 0 J/kg 6.1 K 0 % 0 % 0 % 0 m²/s² 0 0 11.38 2
03:00 0 J/kg 6.6 K 0 % 0 % 0 % 0 m²/s² 0 0 11.76 2
04:00 0 J/kg 6.5 K 0 % 0 % 0 % 0 m²/s² 0 0 11.66 2
05:00 0 J/kg 6.7 K 0 % 0 % 0 % 0 m²/s² 0 0 11.71 2
06:00 0 J/kg 6.7 K 0 % 0 % 0 % 0 m²/s² 0 0 11.59 0
07:00 6 J/kg 6.4 K 0 % 0 % 0 % 0 m²/s² 0 0 11.17 1
08:00 25 J/kg 5.9 K 0 % 0 % 0 % 0 m²/s² 0 0 10.43 0
09:00 17 J/kg 5.9 K 0 % 0 % 0 % 0 m²/s² 0 0 10.1 3
10:00 19 J/kg 6.1 K 0 % 0 % 0 % 0 m²/s² 0 0 10.42 3
11:00 26 J/kg 5.9 K 0 % 0 % 0 % 0 m²/s² 0 0 10.1 3
12:00 33 J/kg 5.6 K 0 % 0 % 0 % 0 m²/s² 0 0 9.8 3
13:00 24 J/kg 5.7 K 0 % 0 % 0 % 0 m²/s² 0 0 9.9 2
14:00 20 J/kg 5.7 K 0 % 0 % 0 % 0 m²/s² 0 0 9.93 3
15:00 18 J/kg 5.8 K 0 % 0 % 0 % 0 m²/s² 0 0 9.91 2
16:00 21 J/kg 6.1 K 0 % 0 % 0 % 0 m²/s² 0 0 10.21 2
17:00 3 J/kg 6.3 K 0 % 0 % 0 % 0 m²/s² 0 0 10.53 1
18:00 0 J/kg 6.9 K 0 % 0 % 0 % 0 m²/s² 0 0 11.01 2
19:00 0 J/kg 7.1 K 0 % 0 % 0 % 0 m²/s² 0 0 11.21 0
20:00 0 J/kg 6.5 K 0 % 0 % 0 % 0 m²/s² 0 0 10.52 1
21:00 1 J/kg 6.1 K 0 % 0 % 0 % 0 m²/s² 0 0 10.12 2
22:00 0 J/kg 6.2 K 0 % 0 % 0 % 0 m²/s² 0 0 10.1 3
23:00 0 J/kg 6.4 K 0 % 0 % 0 % 0 m²/s² 0 0 10.21 3
 05:12     22:04    Daglengte: 16:52 Woensdag 19 Jun
00:00 0 J/kg 6.4 K 0 % 0 % 0 % 0 m²/s² 0 0 10.09 3
01:00 0 J/kg 6.7 K 0 % 0 % 0 % 0 m²/s² 0 0 10.51 3
02:00 0 J/kg 6.7 K 0 % 0 % 0 % 0 m²/s² 0 0 10.6 1
03:00 1 J/kg 7.0 K 0 % 0 % 0 % 0 m²/s² 0 0 10.99 3
04:00 2 J/kg 6.6 K 0 % 0 % 0 % 0 m²/s² 0 0 11.13 3
05:00 2 J/kg 6.3 K 0 % 0 % 0 % 0 m²/s² 0 0 11.76 2
06:00 3 J/kg 6.4 K 0 % 0 % 0 % 0 m²/s² 0 0 12.67 2
07:00 2 J/kg 6.5 K 0 % 0 % 0 % 0 m²/s² 0 0 12.77 2
08:00 7 J/kg 6.4 K 0 % 0 % 0 % 0 m²/s² 0 0 12.88 2
09:00 91 J/kg 5.9 K 0 % 0 % 0 % 0 m²/s² 0 0 11.63 3
10:00 106 J/kg 6.0 K 0 % 0 % 0 % 0 m²/s² 0 0 9.42 2
11:00 116 J/kg 5.9 K 0 % 0 % 0 % 0 m²/s² 0 0 8 2
12:00 128 J/kg 5.8 K 0 % 0 % 0 % 0 m²/s² 0 0 7.9 3
13:00 123 J/kg 5.8 K 0 % 0 % 0 % 0 m²/s² 0 0 7.99 3
14:00 108 J/kg 5.9 K 0 % 0 % 0 % 0 m²/s² 0 0 8.21 2
15:00 98 J/kg 6.0 K 0 % 0 % 0 % 0 m²/s² 0 0 7.86 1
16:00 123 J/kg 5.5 K 0 % 0 % 0 % 0 m²/s² 0 0 7.3 2
17:00 123 J/kg 5.5 K 0 % 0 % 0 % 0 m²/s² 0 0 7.24 3
Temp Baro Wind Neerslag
  EWN Forecast EWN WRFDA DWD ICON FMI HIRLAM MET Norway GFS
 05:12     22:03    Daglengte: 16:51 Vandaag
19:00 13.8° 1006.6 hPa 6.7 m/s 4.1 mm 14.5° 1005.5 hPa 7.0 m/s 20.4 mm 13.7° 1006.6 hPa 6.8 m/s 0.3 mm 15.0° 1007.4 hPa 7.0 m/s 0.0 mm 13.6° 1006.5 hPa 5.4 m/s 0.6 mm 13.9° 1005.7 hPa 6.0 m/s
22:00 11.9° 1007.7 hPa 4.6 m/s 0.0 mm 11.6° 1007.0 hPa 3.3 m/s 31.2 mm 11.8° 1007.6 hPa 4.6 m/s 0.0 mm 12.8° 1008.8 hPa 4.6 m/s 0.0 mm 11.8° 1007.6 hPa 4.4 m/s 0.0 mm 10.2° 1007.5 hPa 3.6 m/s
 05:12     22:03    Daglengte: 16:51 Morgen
01:00 11.2° 1008.5 hPa 4.7 m/s 0.0 mm 10.6° 1007.5 hPa 5.4 m/s 31.5 mm 10.9° 1008.5 hPa 5.0 m/s 0.0 mm 12.2° 1009.6 hPa 4.1 m/s 0.0 mm 11.3° 1008.1 hPa 4.4 m/s 0.0 mm 8.8° 1008.2 hPa 3.7 m/s
04:00 11.1° 1008.4 hPa 5.1 m/s 0.0 mm 10.3° 1007.1 hPa 5.7 m/s 31.6 mm 10.7° 1008.3 hPa 5.3 m/s 0.0 mm 12.0° 1009.7 hPa 4.0 m/s 0.0 mm 11.4° 1008.1 hPa 4.9 m/s 0.3 mm 9.4° 1007.6 hPa 4.1 m/s
07:00 11.8° 1008.7 hPa 5.6 m/s 0.0 mm 11.8° 1007.5 hPa 6.0 m/s 31.9 mm 11.4° 1008.6 hPa 6.2 m/s 0.0 mm 12.4° 1010.0 hPa 4.1 m/s 0.0 mm 11.8° 1008.5 hPa 5.6 m/s 0.0 mm 10.8° 1007.9 hPa 4.6 m/s
10:00 14.1° 1009.9 hPa 6.1 m/s 0.0 mm 14.0° 1008.5 hPa 7.2 m/s 32.5 mm 13.8° 1010.1 hPa 7.6 m/s 0.1 mm 13.8° 1010.8 hPa 5.3 m/s 0.0 mm 14.1° 1009.2 hPa 5.0 m/s 0.0 mm 13.9° 1008.8 hPa 7.3 m/s
13:00 15.8° 1010.7 hPa 6.5 m/s 0.0 mm 16.1° 1009.4 hPa 7.8 m/s 33.0 mm 15.8° 1010.8 hPa 7.3 m/s 0.0 mm 14.7° 1011.1 hPa 5.9 m/s 0.0 mm 16.0° 1010.6 hPa 5.1 m/s 0.4 mm 15.8° 1010.1 hPa 7.9 m/s
16:00 16.0° 1011.2 hPa 6.3 m/s 0.0 mm 16.3° 1009.9 hPa 7.6 m/s 33.0 mm 16.4° 1011.4 hPa 6.5 m/s 0.0 mm 15.0° 1011.3 hPa 5.9 m/s 0.0 mm 16.0° 1011.1 hPa 5.6 m/s 0.0 mm 16.1° 1010.6 hPa 7.5 m/s
19:00 14.8° 1011.7 hPa 5.5 m/s 0.0 mm 14.9° 1010.8 hPa 6.1 m/s 33.0 mm 14.5° 1011.8 hPa 5.7 m/s 0.0 mm 14.6° 1011.9 hPa 5.4 m/s 0.0 mm 14.9° 1011.5 hPa 4.3 m/s 0.0 mm 14.2° 1011.2 hPa 5.9 m/s
22:00 11.8° 1012.5 hPa 3.3 m/s 0.0 mm 8.6° 1011.1 hPa 3.0 m/s 33.0 mm 11.9° 1012.6 hPa 3.2 m/s 0.0 mm 12.8° 1012.7 hPa 3.3 m/s 0.0 mm 11.9° 1012.4 hPa 2.5 m/s 0.0 mm 9.8° 1012.4 hPa 2.8 m/s
 05:12     22:04    Daglengte: 16:52 Dinsdag 18 Jun
01:00 10.3° 1012.8 hPa 2.6 m/s 0.0 mm 6.1° 1011.8 hPa 2.8 m/s 33.0 mm 10.4° 1013.1 hPa 2.0 m/s 0.0 mm 12.3° 1012.8 hPa 2.7 m/s 0.0 mm 10.3° 1012.8 hPa 2.2 m/s 0.0 mm 8.0° 1012.7 hPa 2.3 m/s
04:00 10.1° 1012.4 hPa 2.3 m/s 0.0 mm 7.0° 1011.1 hPa 2.1 m/s 33.0 mm 9.9° 1013.1 hPa 1.7 m/s 0.0 mm 11.7° 1012.4 hPa 2.2 m/s 0.0 mm 10.4° 1012.4 hPa 2.4 m/s 0.0 mm 7.1° 1012.1 hPa 2.0 m/s
07:00 11.0° 1012.7 hPa 2.5 m/s 0.0 mm 11.1° 1011.2 hPa 3.0 m/s 33.0 mm 10.3° 1012.9 hPa 2.5 m/s 0.0 mm 11.5° 1012.7 hPa 2.2 m/s 0.0 mm 11.4° 1012.7 hPa 3.0 m/s 0.0 mm 9.0° 1012.2 hPa 2.2 m/s
10:00 14.0° 1012.9 hPa 3.1 m/s 0.0 mm 14.6° 1011.0 hPa 3.6 m/s 33.0 mm 14.3° 1013.2 hPa 3.4 m/s 0.0 mm 12.0° 1013.0 hPa 2.2 m/s 0.0 mm 14.5° 1012.8 hPa 3.1 m/s 0.0 mm 14.4° 1012.3 hPa 3.1 m/s
13:00 16.3° 1012.4 hPa 3.3 m/s 0.0 mm 16.7° 1010.7 hPa 3.8 m/s 33.0 mm 17.0° 1012.4 hPa 2.9 m/s 0.0 mm 14.8° 1012.7 hPa 2.9 m/s 0.0 mm 16.4° 1012.4 hPa 3.3 m/s 0.0 mm 16.7° 1012.1 hPa 3.9 m/s
16:00 16.9° 1011.6 hPa 3.7 m/s 0.0 mm 17.0° 1010.0 hPa 3.9 m/s 33.0 mm 17.3° 1011.8 hPa 3.7 m/s 0.0 mm 16.8° 1011.9 hPa 3.3 m/s 0.0 mm 16.7° 1011.3 hPa 4.0 m/s
19:00 15.2° 1011.2 hPa 3.9 m/s 0.0 mm 15.3° 1009.5 hPa 4.4 m/s 33.0 mm 15.2° 1011.1 hPa 4.1 m/s 0.0 mm 15.3° 1011.4 hPa 2.9 m/s 0.0 mm 14.6° 1010.7 hPa 3.8 m/s
22:00 11.9° 1011.4 hPa 2.2 m/s 0.0 mm 10.5° 1009.8 hPa 2.7 m/s 33.0 mm 12.3° 1011.1 hPa 2.0 m/s 0.0 mm 11.9° 1011.6 hPa 2.0 m/s 0.0 mm 9.8° 1011.2 hPa 1.6 m/s
 05:12     22:04    Daglengte: 16:52 Woensdag 19 Jun
01:00 10.2° 1011.1 hPa 1.9 m/s 0.0 mm 7.0° 1009.2 hPa 2.9 m/s 33.0 mm 11.4° 1010.5 hPa 1.3 m/s 0.0 mm 10.1° 1011.4 hPa 1.8 m/s 0.0 mm 7.9° 1010.5 hPa 1.2 m/s
04:00 9.4° 1009.9 hPa 1.8 m/s 0.0 mm 8.3° 1008.6 hPa 1.2 m/s 33.0 mm 9.8° 1009.5 hPa 1.0 m/s 0.0 mm 9.3° 1010.1 hPa 1.9 m/s 0.0 mm 7.1° 1009.5 hPa 1.2 m/s
07:00 10.4° 1009.8 hPa 2.0 m/s 0.0 mm 9.0° 1007.7 hPa 1.4 m/s 33.1 mm 11.3° 1009.3 hPa 1.5 m/s 0.0 mm 10.3° 1010.0 hPa 2.0 m/s 0.0 mm 9.5° 1008.7 hPa 1.6 m/s
10:00 12.8° 1009.5 hPa 3.3 m/s 8.0 mm 13.4° 1007.8 hPa 3.1 m/s 33.6 mm 14.2° 1008.9 hPa 3.7 m/s 0.1 mm 12.6° 1009.8 hPa 3.1 m/s 14.0° 1008.8 hPa 3.9 m/s
13:00 14.9° 1009.3 hPa 4.5 m/s 0.0 mm 14.8° 1007.4 hPa 5.4 m/s 34.9 mm 16.0° 1008.6 hPa 5.6 m/s 0.1 mm 14.9° 1009.5 hPa 4.3 m/s 15.8° 1008.2 hPa 5.6 m/s
16:00 14.6° 1008.6 hPa 5.5 m/s 0.0 mm 14.8° 1007.1 hPa 7.0 m/s 35.4 mm 16.1° 1008.2 hPa 5.8 m/s 0.0 mm 14.0° 1009.2 hPa 4.9 m/s 15.6° 1008.0 hPa 6.4 m/s
19:00 13.1° 1008.5 hPa 5.6 m/s 0.0 mm 12.4° 1007.3 hPa 6.4 m/s 36.2 mm 13.3° 1008.2 hPa 5.0 m/s 0.0 mm 13.1° 1009.0 hPa 5.6 m/s 13.3° 1008.0 hPa 6.2 m/s
22:00 11.3° 1009.2 hPa 4.4 m/s 10.3 mm 11.4° 1009.2 hPa 4.5 m/s 10.1° 1009.0 hPa 3.2 m/s 10.3 mm
 05:12     22:04    Daglengte: 16:52 Donderdag 20 Jun
01:00 10.3° 1009.3 hPa 3.9 m/s 10.5 mm 10.5° 1009.3 hPa 4.0 m/s 8.2° 1008.8 hPa 2.6 m/s 10.5 mm
04:00 10.3° 1009.5 hPa 3.5 m/s 10.5 mm 10.6° 1009.6 hPa 3.6 m/s 7.1° 1008.4 hPa 2.7 m/s 10.5 mm
07:00 10.5° 1009.8 hPa 3.2 m/s 10.6 mm 10.6° 1010.0 hPa 3.2 m/s 9.2° 1008.1 hPa 3.0 m/s 10.6 mm
10:00 12.2° 1010.9 hPa 4.3 m/s 11.7 mm 12.1° 1011.0 hPa 4.1 m/s 12.8° 1008.7 hPa 6.4 m/s 11.7 mm
13:00 13.8° 1011.9 hPa 5.1 m/s 13.2 mm 13.7° 1012.1 hPa 5.0 m/s 14.5° 1009.2 hPa 6.5 m/s 13.2 mm
16:00 13.7° 1012.7 hPa 5.1 m/s 13.6 mm 13.5° 1013.0 hPa 5.0 m/s 15.4° 1009.8 hPa 6.2 m/s 13.6 mm
19:00 13.3° 1013.6 hPa 4.9 m/s 13.7 mm 13.3° 1013.9 hPa 4.9 m/s 13.1° 1010.9 hPa 5.3 m/s 13.7 mm
22:00 11.1° 1015.2 hPa 3.5 m/s 13.7 mm 11.2° 1015.4 hPa 3.5 m/s 8.9° 1012.8 hPa 3.1 m/s 13.7 mm
 05:12     22:04    Daglengte: 16:52 Vrijdag 21 Jun
01:00 9.0° 1016.7 hPa 2.1 m/s 13.7 mm 9.2° 1016.9 hPa 2.1 m/s 7.1° 1013.9 hPa 2.3 m/s 13.7 mm
04:00 9.6° 1017.4 hPa 2.0 m/s 13.7 mm 9.8° 1017.7 hPa 2.0 m/s 6.8° 1014.6 hPa 1.9 m/s 13.7 mm
07:00 10.3° 1018.2 hPa 1.9 m/s 13.7 mm 10.4° 1018.5 hPa 1.9 m/s 9.2° 1015.5 hPa 1.7 m/s 13.7 mm
10:00 12.6° 1019.4 hPa 2.7 m/s 13.8 mm 12.6° 1019.6 hPa 2.6 m/s 13.7° 1016.5 hPa 3.2 m/s 13.8 mm
13:00 14.8° 1020.5 hPa 3.3 m/s 13.9 mm 14.7° 1020.8 hPa 3.3 m/s 16.1° 1017.1 hPa 3.8 m/s 13.9 mm
16:00 14.7° 1020.9 hPa 2.9 m/s 13.9 mm 14.6° 1021.3 hPa 2.8 m/s 16.5° 1017.1 hPa 3.4 m/s 13.9 mm
19:00 14.4° 1021.4 hPa 2.4 m/s 13.9 mm 14.4° 1021.8 hPa 2.4 m/s 14.2° 1016.9 hPa 1.9 m/s 13.9 mm
22:00 11.1° 1022.1 hPa 1.9 m/s 13.9 mm 11.2° 1022.5 hPa 1.9 m/s 10.0° 1017.5 hPa 0.9 m/s 13.9 mm
 05:13     22:05    Daglengte: 16:52 Zaterdag 22 Jun
01:00 8.1° 1022.7 hPa 1.5 m/s 13.9 mm 8.1° 1023.2 hPa 1.5 m/s 8.2° 1016.9 hPa 1.3 m/s 13.9 mm
04:00 9.1° 1022.4 hPa 1.6 m/s 13.9 mm 9.1° 1023.0 hPa 1.6 m/s 9.7° 1016.0 hPa 1.7 m/s 13.9 mm
07:00 10.1° 1022.2 hPa 1.7 m/s 14.0 mm 10.0° 1022.8 hPa 1.6 m/s 10.7° 1015.7 hPa 2.5 m/s 14.0 mm
10:00 13.7° 1022.2 hPa 2.6 m/s 14.1 mm 13.6° 1022.8 hPa 2.5 m/s 15.2° 1015.5 hPa 4.4 m/s 14.1 mm
13:00 17.1° 1022.2 hPa 3.4 m/s 15.1 mm 17.2° 1022.8 hPa 3.3 m/s 16.6° 1015.7 hPa 4.2 m/s 15.1 mm
16:00 16.9° 1021.8 hPa 2.9 m/s 17.1 mm 17.2° 1022.3 hPa 2.9 m/s 13.3° 1015.2 hPa 2.8 m/s 17.1 mm
19:00 16.9° 1021.3 hPa 2.5 m/s 17.5 mm 17.2° 1021.9 hPa 2.5 m/s 13.6° 1014.9 hPa 2.5 m/s 17.5 mm
22:00 13.9° 1021.9 hPa 2.3 m/s 17.6 mm 14.1° 1022.5 hPa 2.3 m/s 12.0° 1015.0 hPa 2.8 m/s 17.6 mm
 05:13     22:05    Daglengte: 16:52 Zondag 23 Jun
01:00 11.0° 1022.5 hPa 2.3 m/s 17.6 mm 11.0° 1023.2 hPa 2.1 m/s 11.3° 1014.5 hPa 4.0 m/s 17.6 mm
04:00 10.4° 1022.4 hPa 1.8 m/s 17.7 mm 10.4° 1023.2 hPa 1.6 m/s 10.3° 1013.2 hPa 4.0 m/s 17.7 mm
07:00 10.0° 1022.4 hPa 1.5 m/s 17.7 mm 9.8° 1023.3 hPa 1.2 m/s 11.6° 1012.1 hPa 4.6 m/s 17.7 mm
10:00 14.5° 1021.9 hPa 2.2 m/s 18.0 mm 14.5° 1022.9 hPa 1.9 m/s 14.1° 1011.2 hPa 5.3 m/s 18.0 mm
13:00 19.0° 1021.5 hPa 2.9 m/s 18.0 mm 19.2° 1022.5 hPa 2.6 m/s 17.2° 1010.0 hPa 6.8 m/s 18.0 mm
16:00 18.6° 1021.3 hPa 2.9 m/s 18.2 mm 18.8° 1022.5 hPa 2.6 m/s 16.0° 1007.7 hPa 6.1 m/s 18.2 mm
19:00 18.0° 1021.1 hPa 2.8 m/s 20.1 mm 18.4° 1022.5 hPa 2.6 m/s 13.4° 1005.4 hPa 4.8 m/s 20.1 mm
 05:13     22:05    Daglengte: 16:52 Maandag 24 Jun
01:00 13.4° 1022.6 hPa 2.4 m/s 21.7 mm 13.5° 1024.6 hPa 2.1 m/s 12.3° 1000.7 hPa 5.2 m/s 21.7 mm
07:00 12.4° 1023.5 hPa 2.5 m/s 24.4 mm 12.2° 1026.0 hPa 2.4 m/s 14.4° 996.5 hPa 3.3 m/s 24.4 mm
13:00 19.7° 1024.0 hPa 3.6 m/s 28.0 mm 20.0° 1026.6 hPa 3.7 m/s 16.1° 995.6 hPa 3.0 m/s 28.0 mm
19:00 19.4° 1024.6 hPa 3.1 m/s 30.6 mm 19.8° 1027.2 hPa 3.2 m/s 15.5° 995.8 hPa 1.8 m/s 30.6 mm
 05:14     22:05    Daglengte: 16:51 Dinsdag 25 Jun
01:00 12.7° 1027.6 hPa 2.0 m/s 32.6 mm 12.6° 1030.2 hPa 1.9 m/s 13.8° 999.4 hPa 2.6 m/s 32.6 mm
07:00 12.1° 1028.6 hPa 2.2 m/s 36.9 mm 12.0° 1030.9 hPa 1.8 m/s 12.6° 1003.5 hPa 6.3 m/s 36.9 mm
13:00 20.0° 1029.8 hPa 2.1 m/s 38.1 mm 20.5° 1031.5 hPa 1.7 m/s 14.0° 1010.6 hPa 6.7 m/s 38.1 mm
19:00 19.3° 1029.4 hPa 4.0 m/s 38.5 mm 19.8° 1030.6 hPa 3.7 m/s 13.9° 1015.7 hPa 7.5 m/s 38.5 mm
 05:14     22:05    Daglengte: 16:51 Woensdag 26 Jun
01:00 12.9° 1030.3 hPa 2.4 m/s 38.6 mm 13.2° 1031.2 hPa 2.2 m/s 10.2° 1020.9 hPa 4.7 m/s 38.6 mm
07:00 11.2° 1023.4 hPa 4.3 m/s 38.6 mm 11.2° 1023.4 hPa 4.3 m/s 38.6 mm
13:00 15.3° 1026.3 hPa 2.5 m/s 0.1 mm
19:00 15.4° 1025.0 hPa 3.8 m/s 0.2 mm
 05:15     22:05    Daglengte: 16:50 Donderdag 27 Jun
01:00 10.8° 1024.3 hPa 1.9 m/s 0.2 mm
07:00 11.1° 1021.9 hPa 1.5 m/s 0.7 mm
13:00 15.1° 1020.3 hPa 2.6 m/s 0.5 mm
19:00 15.1° 1018.6 hPa 3.5 m/s 1.0 mm
 05:15     22:04    Daglengte: 16:49 Vrijdag 28 Jun
01:00 11.2° 1018.5 hPa 2.1 m/s 0.6 mm
07:00 11.6° 1017.2 hPa 1.8 m/s 0.5 mm
13:00 15.8° 1017.0 hPa 3.1 m/s 0.4 mm
19:00 15.7° 1016.2 hPa 3.5 m/s 0.6 mm
 05:16     22:04    Daglengte: 16:48 Zaterdag 29 Jun
01:00 11.4° 1016.4 hPa 2.3 m/s 0.3 mm
07:00 11.5° 1015.3 hPa 2.0 m/s 0.4 mm
13:00 15.6° 1014.7 hPa 2.7 m/s 0.7 mm
19:00 15.3° 1013.3 hPa 2.7 m/s 0.9 mm
 05:17     22:04    Daglengte: 16:47 Zondag 30 Jun
01:00 11.6° 1012.7 hPa 1.7 m/s 0.7 mm
07:00 11.6° 1011.9 hPa 2.1 m/s 0.6 mm
13:00 14.9° 1012.4 hPa 2.9 m/s 0.8 mm
19:00 15.1° 1012.6 hPa 4.2 m/s 0.7 mm
 05:17     22:04    Daglengte: 16:47 Maandag 01 Jul
01:00 10.8° 1013.7 hPa 1.9 m/s 0.2 mm
07:00 10.9° 1013.3 hPa 2.0 m/s 0.7 mm
13:00 15.0° 1014.0 hPa 3.5 m/s 0.6 mm
FMI Hirlam - 7.5 km EWN WRFDA - 12 km DWD ICON - 7 km GFS - 25 km Basiskaart






























































Updatetijd (Europe/Amsterdam) Resolutie Lengte Stap
FMI Hirlam 13:00, 19:00, 01:00, 07:00 7.5 km 49h 1h
EWN WRFDA 16:15, 22:15, 04:15, 10:15 12 km 73h 1h
DWD ICON 18:00, 00:00, 06:00, 12:00 7 km 75h 1h
GFS 14:30, 20:30, 02:30, 08:30 25 km 237h 3h
30+ mm
25-30 mm
20-25 mm
15-20 mm
10-15 mm
6-10 mm
4-6 mm
2-4 mm
1-2 mm
0.5-1 mm
0.2-0.5 mm
0.1-0.2 mm
30+ mm
25-30 mm
20-25 mm
15-20 mm
10-15 mm
6-10 mm
4-6 mm
2-4 mm
1-2 mm
0.5-1 mm
0.2-0.5 mm
0.1-0.2 mm
Sneeuwval
Natte sneeuw
Hagel
Vorst
30+ mm
25-30 mm
20-25 mm
15-20 mm
10-15 mm
6-10 mm
4-6 mm
2-4 mm
1-2 mm
0.5-1 mm
0.2-0.5 mm
0.1-0.2 mm
Sneeuwval
Natte sneeuw
Hagel
Vorst
Onweer
50 mm
40 mm
30 mm
26 mm
22 mm
18 mm
14 mm
10 mm
9 mm
8 mm
7 mm
6 mm
5 mm
4.5 mm
4 mm
3.5 mm
3 mm
2.5 mm
2 mm
1.5 mm
1 mm
0.8 mm
0.6 mm
0.4 mm
0.2 mm
0.05 mm
35°
30°
25°
20°
15°
10°
-5°
-10°
-15°
-20°
-25°
-30°
-35°
33> m/s
29 m/s
25 m/s
21 m/s
17 m/s
14 m/s
11 m/s
8 m/s
5 m/s
3 m/s
0 m/s
2600 J/kg
2400 J/kg
2200 J/kg
2000 J/kg
1800 J/kg
1600 J/kg
1400 J/kg
1200 J/kg
1000 J/kg
800 J/kg
600 J/kg
400 J/kg
200 J/kg
70 dBZ
65 dBZ
60 dBZ
55 dBZ
50 dBZ
45 dBZ
40 dBZ
35 dBZ
30 dBZ
25 dBZ
20 dBZ
15 dBZ
10 dBZ
5 dBZ
-1 K
-2 K
-3 K
-4 K
-5 K
-6 K
-7 K
-8 K
-9 K
950 m²/s²
900 m²/s²
850 m²/s²
800 m²/s²
750 m²/s²
700 m²/s²
650 m²/s²
600 m²/s²
550 m²/s²
500 m²/s²
450 m²/s²
400 m²/s²
350 m²/s²
300 m²/s²
250 m²/s²
200 m²/s²
150 m²/s²
100 m²/s²
46 m/s
44 m/s
42 m/s
40 m/s
38 m/s
36 m/s
34 m/s
32 m/s
30 m/s
28 m/s
26 m/s
24 m/s
22 m/s
20 m/s
16 m/s
12 m/s
8 m/s
4 m/s
30 m/s
28 m/s
26 m/s
24 m/s
22 m/s
20 m/s
18 m/s
16 m/s
14 m/s
12 m/s
10 m/s
8 m/s
6 m/s
4 m/s
2 m/s
3.0
2.8
2.6
2.4
2.2
2.0
1.8
1.6
1.4
1.2
1.0
0.8
0.6
0.4
0.2
15
14
13
12
11
10
9
8
7
6
5
4
3
2
1
90%
80%
70%
60%
50%
40%
30%
20%
10%
42
40
38
36
34
32
30
28
26
24
22
20
18
16
14
12
90+ cm
80-90 cm
70-80 cm